[[{"header":{"parameterUnit":"m.s-1","parameterCategory":2,"la1":30.2991,"la2":30.254,"lo1":-89.0895,"lo2":-89.0444,"dy":0.0017,"dx":0.0017,"nx":28,"ny":28,"refTime":"2024-08-08T09:00:00:Z","depth":"0","parameterNumber":2,"parameterNumberName":"U-component_of_CURRENTS"},"data":[0,0,0,0,0,0,0,0,0,0,0,0,0,0,0,0,0,0,0,0,0,0,0,0,0,0,0,0,0,0,0,0,0,0,0,0,0,0,0,0,0,0,0,0,0,0,0,0,0,0,0,0,0,0,0,0,0,0,0.3699,0.3701,0,0.3798,0.3798,0.3799,0.3835,0.3835,0.3835,0.3835,0.3803,0.3802,0.3801,0,0,0,0,0,0,0,0,0,0,0,0,0,0.357,0.3572,0.3699,0.3701,0.3703,0.3798,0.3798,0.3799,0.3835,0.3835,0.3835,0.3835,0.3803,0.3802,0.3801,0,0,0,0,0,0,0,0,0,0,0,0,0,0.3639,0.3572,0.3699,0.3735,0.3739,0.3797,0.3798,0.38,0.3835,0.3835,0.3835,0.3835,0.3803,0.3802,0.3801,0.3791,0,0,0.3797,0.3796,0,0,0,0,0,0,0,0,0.3635,0.3643,0.3728,0.3733,0.3738,0.3808,0.3742,0.3792,0.3835,0.3794,0.3835,0.3835,0.3795,0.3794,0.3809,0.3789,0.3788,0.3796,0.3796,0.3795,0.3795,0,0,0,0,0,0,0,0.363,0.3639,0.3734,0.373,0.3736,0.3756,0.3765,0.3751,0.3787,0.3798,0.3802,0.3819,0.3796,0.381,0.3808,0.3787,0.3796,0.3795,0.3794,0.3794,0.3792,0.3793,0,0,0,0,0,0,0.3625,0.3635,0.3731,0.3737,0.369,0.3758,0.3768,0.3782,0.379,0.3794,0.3819,0.3821,0.3812,0.3809,0.3807,0.3778,0.3795,0.3794,0.3793,0.3791,0.3792,0.3793,0,0,0,0,0,0,0.3622,0.3633,0.3727,0.3692,0.3706,0.3761,0.3775,0.3784,0.3794,0.3809,0.3809,0.3821,0.3812,0.3808,0.3804,0.3777,0.3793,0.3792,0.379,0.3792,0.3793,0.373,0,0,0,0,0,0,0.3618,0.3631,0.3625,0.3691,0.3708,0.3744,0.3776,0.3786,0.3808,0.381,0.381,0.3808,0.3812,0.3807,0.3803,0.3775,0.3791,0.3789,0.3791,0.3792,0.3731,0.3729,0.3727,0,0,0,0,0,0.3613,0.3602,0.3624,0.3635,0.3703,0.3744,0.3753,0.379,0.3807,0.3801,0.3821,0.3808,0.3814,0.3806,0.3802,0.3773,0.3789,0.3791,0.3792,0.3732,0.3729,0.3727,0,0,0,0,0,0,0.353,0.3607,0.3632,0.3642,0.3685,0.3751,0.3748,0.3784,0.3798,0.3792,0.3811,0.381,0.3804,0.3805,0.3797,0.3785,0.3801,0.3802,0.3757,0.3754,0.3752,0.3729,0.379,0,0,0,0,0,0.3515,0.353,0.3604,0.3606,0.3625,0.3687,0.3705,0.3734,0.3766,0.3773,0.3784,0.3796,0.381,0.3795,0.3808,0.3783,0.3806,0.3769,0.3767,0.3764,0.3748,0.3793,0.3792,0.3799,0.3799,0.3799,0,0,0.3483,0.3527,0.3534,0.359,0.3623,0.3639,0.3695,0.3714,0.372,0.3762,0.3756,0.3789,0.381,0.38,0.3794,0.3789,0.3776,0.3767,0.3764,0.3748,0.3794,0.3793,0.3792,0.38,0.38,0.38,0,0,0.3436,0.3465,0.3469,0.3501,0.3553,0.3588,0.3592,0.3655,0.367,0.3683,0.3726,0.3743,0.375,0.3764,0.3771,0.3763,0.3778,0.3771,0.3713,0.3757,0.3755,0.3755,0.3777,0.3779,0.3751,0.3751,0.375,0,0.3396,0.3418,0.3471,0.3483,0.3502,0.3561,0.3565,0.3585,0.3637,0.3645,0.3666,0.3717,0.373,0.373,0.3735,0.375,0.3781,0.3712,0.3751,0.3751,0.3751,0.3774,0.3777,0.3748,0.3748,0.3748,0.3749,0,0.3369,0.3378,0.3375,0.3413,0.3431,0.3439,0.3486,0.3494,0.3525,0.3558,0.3579,0.3623,0.3655,0.3664,0.369,0.3699,0.3722,0.3755,0.3747,0.3746,0.3771,0.3775,0.3744,0.3745,0.3746,0.3746,0,0,0.3305,0.3353,0.3348,0.3358,0.3399,0.3412,0.3405,0.3431,0.3429,0.3469,0.3476,0.3515,0.3557,0.3572,0.3616,0.3638,0.3668,0.3687,0.3691,0.3691,0.3756,0.3703,0.3702,0.3715,0.3716,0.3716,0.377,0,0.327,0.3279,0.331,0.3295,0.3305,0.3343,0.3335,0.3356,0.3381,0.3394,0.3439,0.3468,0.3516,0.3541,0.357,0.3658,0.3678,0.365,0.3773,0.3776,0.3714,0.3705,0.3526,0.3553,0.3774,0.3775,0.3775,0,0.3236,0.3253,0.3244,0.3259,0.3264,0.3254,0.3259,0.3266,0.3289,0.3313,0.3343,0.3394,0.3435,0.3486,0.3596,0.3582,0.3658,0.3715,0.372,0.369,0.373,0.3594,0.3552,0.3416,0.3782,0.3781,0.3781,0,0.3182,0.3197,0.3189,0.3196,0.3221,0.3212,0.322,0.3237,0.3239,0.3269,0.3275,0.3339,0.3379,0.3479,0.3593,0.3611,0.3708,0.3755,0.3769,0.3766,0.3644,0.3629,0.3464,0.3825,0.3825,0.3825,0.3825,0,0.3142,0.3126,0.3162,0.316,0.3134,0.3171,0.3143,0.3161,0.318,0.3164,0.3238,0.3241,0.3385,0.3456,0.3568,0.3663,0.3697,0.3744,0.3772,0.3618,0.36,0.3503,0.3457,0.3827,0.3826,0.3826,0.3826,0,0.3067,0.3099,0.3085,0.3109,0.311,0.309,0.3095,0.3074,0.3113,0.3096,0.3107,0.318,0.3272,0.3395,0.3551,0.3621,0.361,0.3754,0.3546,0.3548,0.3431,0.3389,0.3223,0.3148,0.3777,0.3776,0.3775,0,0.3018,0.3014,0.3033,0.3016,0.3019,0.3005,0.2985,0.3029,0.3012,0.3048,0.3027,0.311,0.3152,0.3335,0.3466,0.3618,0.3535,0.3533,0.3531,0.337,0.3346,0.3266,0.321,0.335,0.3345,0.3342,0.3339,0,0.2919,0.2934,0.293,0.2911,0.2888,0.2866,0.2852,0.2838,0.2876,0.2877,0.2888,0.2934,0.3093,0.3142,0.3319,0.3412,0.3313,0.3467,0.3351,0.3021,0.287,0.2829,0.3366,0.3308,0.3311,0.3313,0.3315,0.3316,0.2814,0.2794,0.2795,0.2765,0.275,0.2708,0.2642,0.2651,0.2626,0.2576,0.2707,0.2685,0.2804,0.3034,0.313,0.3083,0.3147,0.2999,0.2972,0.2915,0.278,0.3233,0.3181,0.3183,0.3185,0.3187,0.3188,0,0.2644,0.2654,0.2638,0.2595,0.2531,0.2569,0.2519,0.2431,0.2358,0.2367,0.237,0.2372,0.2418,0.2542,0.2602,0.2568,0.2552,0.2484,0.2299,0.2287,0.2721,0.2635,0.2397,0.2397,0.2397,0.2397,0.2398,0.2398,0.2533,0.248,0.2497,0.2372,0.2346,0.2191,0.2132,0.2057,0.2019,0.1905,0.1845,0.1904,0.202,0.2056,0.2035,0.2052,0.1938,0.1844,0.1904,0.2161,0.2206,0.2249,0.2155,0.182,0.1819,0.1373,0.1369,0.1366]},{"header":{"parameterUnit":"m.s-1","parameterCategory":2,"la1":30.2991,"la2":30.254,"lo1":-89.0895,"lo2":-89.0444,"dy":0.0017,"dx":0.0017,"nx":28,"ny":28,"refTime":"2024-08-08T09:00:00:Z","depth":"0","parameterNumber":3,"parameterNumberName":"V-component_of_CURRENTS"},"data":[0,0,0,0,0,0,0,0,0,0,0,0,0,0,0,0,0,0,0,0,0,0,0,0,0,0,0,0,0,0,0,0,0,0,0,0,0,0,0,0,0,0,0,0,0,0,0,0,0,0,0,0,0,0,0,0,0,0,-0.0636,-0.0637,0,-0.0629,-0.0628,-0.0628,-0.0625,-0.0626,-0.0626,-0.0627,-0.0536,-0.0534,-0.0531,0,0,0,0,0,0,0,0,0,0,0,0,0,-0.0607,-0.0608,-0.0636,-0.0637,-0.0637,-0.0629,-0.0628,-0.0628,-0.0625,-0.0626,-0.0626,-0.0627,-0.0537,-0.0534,-0.0531,0,0,0,0,0,0,0,0,0,0,0,0,0,-0.0607,-0.0608,-0.0636,-0.0638,-0.0639,-0.0629,-0.0628,-0.0627,-0.0625,-0.0626,-0.0626,-0.0627,-0.0539,-0.0534,-0.053,-0.049,0,0,-0.0517,-0.0515,0,0,0,0,0,0,0,0,-0.0607,-0.0608,-0.0637,-0.0638,-0.0639,-0.0633,-0.0585,-0.0579,-0.0625,-0.0625,-0.0627,-0.0627,-0.0563,-0.0557,-0.0549,-0.0486,-0.0482,-0.0517,-0.0514,-0.0512,-0.0511,0,0,0,0,0,0,0,-0.0607,-0.0608,-0.0628,-0.0638,-0.0639,-0.0625,-0.0626,-0.0584,-0.0585,-0.0625,-0.0626,-0.0632,-0.0563,-0.0553,-0.0547,-0.0481,-0.0517,-0.0513,-0.0511,-0.0509,-0.0372,-0.0371,0,0,0,0,0,0,-0.0619,-0.0608,-0.0629,-0.0629,-0.063,-0.0626,-0.0626,-0.063,-0.0588,-0.0584,-0.0632,-0.0632,-0.056,-0.0552,-0.0543,-0.0473,-0.0513,-0.0509,-0.0506,-0.0373,-0.0372,-0.0371,0,0,0,0,0,0,-0.0619,-0.0621,-0.0629,-0.0622,-0.0623,-0.0627,-0.063,-0.063,-0.0622,-0.0595,-0.0588,-0.0626,-0.056,-0.0549,-0.05,-0.0471,-0.0507,-0.0503,-0.0375,-0.0373,-0.0372,-0.0345,0,0,0,0,0,0,-0.0618,-0.0621,-0.0618,-0.0623,-0.0624,-0.0613,-0.063,-0.0629,-0.0627,-0.0627,-0.0587,-0.058,-0.056,-0.0507,-0.0496,-0.0465,-0.0499,-0.0376,-0.0374,-0.0372,-0.0348,-0.0343,-0.0339,0,0,0,0,0,-0.0616,-0.0611,-0.0618,-0.062,-0.0623,-0.0613,-0.0611,-0.0613,-0.0626,-0.061,-0.0589,-0.0581,-0.0487,-0.0502,-0.049,-0.0457,-0.0377,-0.0375,-0.0372,-0.035,-0.0344,-0.0339,0,0,0,0,0,0,-0.0593,-0.0611,-0.0618,-0.0618,-0.0613,-0.0614,-0.0604,-0.0611,-0.0583,-0.0581,-0.0562,-0.0551,-0.0499,-0.0482,-0.05,-0.0414,-0.0432,-0.0427,-0.0419,-0.0413,-0.0409,-0.0413,-0.0496,0,0,0,0,0,-0.059,-0.0592,-0.0601,-0.0598,-0.0596,-0.06,-0.0596,-0.0597,-0.0582,-0.0572,-0.0547,-0.0516,-0.0478,-0.0451,-0.0416,-0.0362,-0.0366,-0.0335,-0.0331,-0.0327,-0.0323,-0.0314,-0.0309,-0.0363,-0.0363,-0.0363,0,0,-0.0582,-0.0591,-0.0592,-0.0593,-0.0591,-0.0575,-0.0597,-0.0586,-0.0565,-0.0562,-0.0517,-0.0498,-0.0462,-0.0406,-0.0381,-0.0387,-0.0314,-0.0324,-0.0322,-0.0319,-0.0311,-0.0306,-0.0301,-0.0361,-0.0362,-0.0362,0,0,-0.0564,-0.0572,-0.0566,-0.0559,-0.0557,-0.0552,-0.0551,-0.0545,-0.0532,-0.0492,-0.0486,-0.0451,-0.0393,-0.0361,-0.0339,-0.0288,-0.0296,-0.0278,-0.0251,-0.0242,-0.0238,-0.0234,-0.0236,-0.0232,-0.0272,-0.0272,-0.0272,0,-0.0553,-0.0549,-0.0558,-0.0546,-0.0537,-0.0543,-0.0523,-0.0505,-0.0481,-0.0462,-0.0471,-0.0395,-0.0368,-0.0303,-0.029,-0.0276,-0.0284,-0.0273,-0.0238,-0.0234,-0.0231,-0.0233,-0.023,-0.027,-0.027,-0.027,-0.0271,0,-0.053,-0.0522,-0.0514,-0.0501,-0.0487,-0.0469,-0.0454,-0.0429,-0.0421,-0.0407,-0.0351,-0.0321,-0.0281,-0.0264,-0.0259,-0.0214,-0.0231,-0.0239,-0.0254,-0.0224,-0.0228,-0.0225,-0.0268,-0.0268,-0.0269,-0.0269,0,0,-0.051,-0.0503,-0.0496,-0.0484,-0.0463,-0.0447,-0.0404,-0.0367,-0.0339,-0.031,-0.0269,-0.0215,-0.022,-0.0196,-0.0186,-0.0173,-0.0158,-0.0198,-0.0198,-0.0205,-0.0152,-0.0146,-0.0143,-0.0169,-0.0168,-0.0167,-0.0165,0,-0.0485,-0.0464,-0.046,-0.0418,-0.0402,-0.0386,-0.0347,-0.0311,-0.0283,-0.0239,-0.0211,-0.0169,-0.0187,-0.017,-0.0159,-0.0154,-0.0149,-0.0159,-0.0174,-0.0174,-0.0178,-0.0138,-0.0102,-0.0096,-0.0162,-0.0162,-0.0162,0,-0.0451,-0.0445,-0.0414,-0.0382,-0.0372,-0.0345,-0.0287,-0.0252,-0.0195,-0.0174,-0.0138,-0.0125,-0.0087,-0.0117,-0.0102,-0.0113,-0.0132,-0.0137,-0.0138,-0.0139,-0.0162,-0.0135,-0.0088,-0.0158,-0.0157,-0.0158,-0.0158,0,-0.0426,-0.0401,-0.0379,-0.0368,-0.0336,-0.031,-0.0286,-0.0232,-0.0192,-0.0137,-0.0104,-0.0074,-0.0045,-0.0065,-0.0073,-0.0095,-0.0064,-0.0097,-0.011,-0.0111,-0.0084,-0.0083,-0.011,-0.0096,-0.0096,-0.0096,-0.0096,0,-0.0392,-0.0367,-0.0369,-0.0353,-0.0313,-0.0297,-0.024,-0.0208,-0.0153,-0.009,-0.0078,-0.0019,-0.0034,-0.0014,-0.0051,-0.0058,-0.0049,-0.0095,-0.0102,-0.0074,-0.0072,-0.0136,-0.0171,-0.0096,-0.0096,-0.0096,-0.0096,0,-0.0351,-0.0356,-0.0326,-0.0308,-0.0299,-0.0267,-0.0219,-0.0173,-0.0134,-0.005,-0.0031,0.0028,0.0062,0.0047,0.0038,-0.0014,-0.005,-0.0042,-0.001,-0.0013,-0.0112,-0.0145,-0.0147,-0.0156,-0.0069,-0.0068,-0.0068,0,-0.0325,-0.0312,-0.0297,-0.0278,-0.0267,-0.0229,-0.0194,-0.016,-0.0105,-0.0009,0.0045,0.01,0.0178,0.0167,0.0106,0.0056,-0.0008,0.0013,-0.0022,-0.01,-0.0142,-0.016,-0.0169,0.0019,0.002,0.0021,0.0021,0,-0.0272,-0.0272,-0.0254,-0.0225,-0.0194,-0.0153,-0.0103,-0.0056,0.0008,0.0089,0.0205,0.0269,0.0271,0.0277,0.0199,0.0139,-0.0012,0.0024,-0.0054,-0.0068,-0.0087,-0.0105,-0.0015,0.0028,0.0028,0.0027,0.0027,0.0026,-0.0226,-0.0204,-0.0186,-0.0145,-0.0116,-0.0049,0.0015,0.0082,0.0194,0.0343,0.0348,0.0475,0.0408,0.0334,0.0233,0.0049,0.0046,-0.0022,-0.0054,-0.0065,-0.0073,0.0028,0.006,0.006,0.0059,0.0059,0.0058,0,-0.0144,-0.0129,-0.01,-0.004,0.0022,0.0013,0.0104,0.0184,0.0348,0.0458,0.0569,0.0618,0.0543,0.0386,0.0156,0.0001,-0.0054,-0.0092,-0.0115,-0.0121,-0.0029,-0.0025,-0.001,-0.001,-0.001,-0.001,-0.001,-0.001,-0.0092,-0.0047,-0.0033,0.0088,0.0131,0.023,0.0296,0.04,0.0492,0.0662,0.0751,0.0795,0.0696,0.0288,-0.0019,-0.0105,-0.02,-0.0206,-0.0269,-0.0229,-0.0226,-0.0223,-0.023,-0.0257,-0.0258,-0.0328,-0.0329,-0.033]}],[{"header":{"parameterUnit":"m.s-1","parameterCategory":2,"la1":30.2991,"la2":30.254,"lo1":-89.0895,"lo2":-89.0444,"dy":0.0017,"dx":0.0017,"nx":28,"ny":28,"refTime":"2024-08-08T09:00:00:Z","depth":"2","parameterNumber":2,"parameterNumberName":"U-component_of_CURRENTS"},"data":[0,0,0,0,0,0,0,0,0,0,0,0,0,0,0,0,0,0,0,0,0,0,0,0,0,0,0,0,0,0,0,0,0,0,0,0,0,0,0,0,0,0,0,0,0,0,0,0,0,0,0,0,0,0,0,0,0,0,0.2106,0.2107,0,0.2183,0.2183,0.2184,0.2246,0.2247,0.2248,0.2248,0.233,0.2331,0.2332,0,0,0,0,0,0,0,0,0,0,0,0,0,0.2062,0.2062,0.2106,0.2107,0.2109,0.2183,0.2183,0.2184,0.2246,0.2247,0.2248,0.2249,0.2329,0.2331,0.2333,0,0,0,0,0,0,0,0,0,0,0,0,0,0.2101,0.2062,0.2106,0.215,0.2155,0.2182,0.2183,0.2184,0.2246,0.2247,0.2248,0.2249,0.2329,0.2331,0.2333,0.2319,0,0,0.2339,0.234,0,0,0,0,0,0,0,0,0.2099,0.2102,0.2142,0.2147,0.2153,0.2208,0.2198,0.2231,0.2245,0.2208,0.2248,0.225,0.229,0.2296,0.2303,0.2323,0.2326,0.2339,0.234,0.2341,0.2342,0,0,0,0,0,0,0,0.2096,0.21,0.2134,0.2144,0.215,0.2183,0.2189,0.2204,0.2239,0.2212,0.2217,0.2229,0.2293,0.2301,0.2306,0.2328,0.2339,0.2341,0.2342,0.2343,0.2408,0.2409,0,0,0,0,0,0,0.2088,0.2097,0.2132,0.2136,0.2131,0.2183,0.219,0.2187,0.2239,0.2249,0.2228,0.2232,0.2297,0.2303,0.2309,0.235,0.2341,0.2343,0.2344,0.2408,0.2408,0.2409,0,0,0,0,0,0,0.2086,0.2089,0.2128,0.2122,0.2129,0.2182,0.2179,0.2188,0.2218,0.2252,0.2262,0.2251,0.2298,0.2306,0.2337,0.2352,0.2344,0.2346,0.2407,0.2408,0.2409,0.2398,0,0,0,0,0,0,0.2084,0.2088,0.2091,0.212,0.2129,0.2145,0.2178,0.2189,0.2223,0.223,0.2274,0.2282,0.23,0.2334,0.2339,0.2355,0.2347,0.2406,0.2407,0.2408,0.2398,0.2399,0.2399,0,0,0,0,0,0.2082,0.2075,0.209,0.2095,0.2128,0.2145,0.2152,0.2193,0.2223,0.2227,0.2266,0.2282,0.2344,0.2335,0.2342,0.2358,0.2406,0.2407,0.2408,0.2398,0.2399,0.2399,0,0,0,0,0,0,0.2061,0.2081,0.2099,0.21,0.2123,0.2157,0.2172,0.22,0.2233,0.2248,0.2283,0.2293,0.2333,0.2341,0.2331,0.2381,0.238,0.2382,0.237,0.2371,0.2371,0.2373,0.2349,0,0,0,0,0,0.2055,0.2056,0.2082,0.2087,0.2097,0.2138,0.2156,0.218,0.2212,0.223,0.2264,0.2302,0.2338,0.2351,0.2381,0.2395,0.2426,0.2412,0.2413,0.2413,0.2419,0.2486,0.2493,0.2413,0.2413,0.2413,0,0,0.2053,0.2063,0.2067,0.2083,0.2108,0.2115,0.2151,0.2175,0.219,0.2231,0.2267,0.231,0.2345,0.2374,0.2392,0.2383,0.2449,0.2414,0.2414,0.2421,0.2488,0.2496,0.2503,0.2413,0.2413,0.2413,0,0,0.2044,0.2053,0.2053,0.2064,0.2095,0.2111,0.212,0.2159,0.2185,0.2217,0.2262,0.2309,0.2351,0.2382,0.2402,0.242,0.2459,0.2436,0.243,0.2494,0.2501,0.2508,0.2542,0.2553,0.2425,0.2425,0.2425,0,0.2049,0.2042,0.2058,0.2059,0.207,0.2108,0.2112,0.2134,0.2181,0.2208,0.2227,0.2326,0.2355,0.2402,0.2415,0.2422,0.2462,0.2422,0.2495,0.2503,0.251,0.2544,0.2555,0.2424,0.2424,0.2424,0.2424,0,0.2034,0.2036,0.2037,0.2046,0.2054,0.2063,0.2088,0.2114,0.2156,0.219,0.226,0.2308,0.2371,0.2386,0.2408,0.2473,0.2486,0.2498,0.2493,0.2518,0.2551,0.2563,0.2424,0.2424,0.2424,0.2424,0,0,0.2035,0.203,0.2035,0.2035,0.2048,0.2054,0.2072,0.2105,0.2141,0.2191,0.2245,0.2312,0.2364,0.2391,0.2431,0.2478,0.2557,0.2511,0.2515,0.2543,0.2694,0.2505,0.25,0.2595,0.2598,0.26,0.2691,0,0.203,0.2021,0.2021,0.2018,0.2014,0.204,0.2057,0.2092,0.2139,0.2196,0.226,0.2331,0.2356,0.2406,0.2457,0.2546,0.2592,0.253,0.2667,0.267,0.2499,0.2508,0.2292,0.2338,0.2703,0.2705,0.2706,0,0.2016,0.2011,0.2006,0.2006,0.2011,0.2024,0.2065,0.2084,0.2159,0.2203,0.2277,0.2339,0.2425,0.2445,0.2591,0.256,0.263,0.2682,0.2687,0.2524,0.2503,0.2376,0.2347,0.2726,0.2725,0.2723,0.2722,0,0.1995,0.1998,0.1994,0.1993,0.2004,0.2027,0.2049,0.2106,0.2134,0.2226,0.2274,0.2372,0.2444,0.2547,0.2648,0.2646,0.2796,0.2804,0.2693,0.268,0.2525,0.2492,0.2908,0.2908,0.2908,0.2908,0.2907,0,0.1967,0.1959,0.1998,0.1989,0.2006,0.2027,0.2062,0.2099,0.2169,0.2214,0.2294,0.2355,0.2484,0.2576,0.2662,0.2694,0.2811,0.2688,0.269,0.2509,0.2476,0.2839,0.283,0.2911,0.291,0.291,0.2909,0,0.1905,0.1935,0.1929,0.1969,0.199,0.2003,0.2055,0.2082,0.2161,0.2226,0.2263,0.2372,0.2489,0.2581,0.2739,0.2687,0.2754,0.2742,0.2492,0.2458,0.2595,0.2584,0.262,0.2614,0.2609,0.2604,0.2601,0,0.1845,0.1851,0.1906,0.1924,0.1943,0.1978,0.2003,0.2073,0.2109,0.2235,0.2269,0.2391,0.2446,0.2543,0.2509,0.2553,0.2701,0.2332,0.226,0.2566,0.2566,0.2563,0.256,0.2071,0.2064,0.2058,0.2053,0,0.1746,0.1801,0.1828,0.1861,0.19,0.1924,0.1982,0.1986,0.208,0.2125,0.2203,0.2255,0.2325,0.2221,0.2215,0.2223,0.2289,0.2198,0.2633,0.2138,0.2045,0.2046,0.2062,0.1997,0.2003,0.2007,0.201,0.2012,0.1693,0.1715,0.1785,0.1814,0.1853,0.1871,0.1838,0.1888,0.1904,0.1904,0.2033,0.1996,0.1999,0.1843,0.183,0.1797,0.1955,0.1861,0.1884,0.1912,0.1792,0.1691,0.1555,0.1558,0.156,0.1563,0.1564,0,0.1607,0.1679,0.1717,0.1751,0.1737,0.1799,0.1819,0.174,0.1687,0.1697,0.1692,0.1494,0.1409,0.1495,0.1332,0.1287,0.1331,0.1265,0.1322,0.1374,0.1421,0.1281,0.0907,0.0905,0.0904,0.0903,0,0,0.158,0.1617,0.1668,0.1647,0.1652,0.158,0.1562,0.1461,0.1418,0.1282,0.1208,0.1225,0.1334,0.1047,0.1032,0.0956,0.1167,0.0919,0.1435,0.1548,0.1594,0.1738,0.1573,0,0,0,0,0]},{"header":{"parameterUnit":"m.s-1","parameterCategory":2,"la1":30.2991,"la2":30.254,"lo1":-89.0895,"lo2":-89.0444,"dy":0.0017,"dx":0.0017,"nx":28,"ny":28,"refTime":"2024-08-08T09:00:00:Z","depth":"2","parameterNumber":3,"parameterNumberName":"V-component_of_CURRENTS"},"data":[0,0,0,0,0,0,0,0,0,0,0,0,0,0,0,0,0,0,0,0,0,0,0,0,0,0,0,0,0,0,0,0,0,0,0,0,0,0,0,0,0,0,0,0,0,0,0,0,0,0,0,0,0,0,0,0,0,0,0.0144,0.0143,0,0.0048,0.0047,0.0046,-0.0053,-0.0055,-0.0056,-0.0058,-0.014,-0.0141,-0.0141,0,0,0,0,0,0,0,0,0,0,0,0,0,0.0241,0.024,0.0144,0.0143,0.0141,0.0048,0.0047,0.0046,-0.0053,-0.0055,-0.0057,-0.0059,-0.014,-0.0141,-0.0142,0,0,0,0,0,0,0,0,0,0,0,0,0,0.018,0.0239,0.0144,0.0079,0.0072,0.0048,0.0047,0.0046,-0.0052,-0.0055,-0.0057,-0.0059,-0.014,-0.0141,-0.0142,-0.01,0,0,-0.0145,-0.0145,0,0,0,0,0,0,0,0,0.0183,0.0177,0.009,0.0083,0.0075,0.0005,0.0051,-0.0003,-0.0052,-0.0003,-0.0058,-0.0061,-0.009,-0.0095,-0.0105,-0.0104,-0.0107,-0.0145,-0.0146,-0.0146,-0.0146,0,0,0,0,0,0,0,0.0188,0.018,0.0109,0.0089,0.008,0.0054,0.0043,0.004,-0.0029,-0.0007,-0.0015,-0.0029,-0.0094,-0.0103,-0.0107,-0.0109,-0.0145,-0.0146,-0.0146,-0.0147,-0.0111,-0.011,0,0,0,0,0,0,0.0197,0.0184,0.0112,0.0106,0.0122,0.0054,0.0041,0.0032,-0.003,-0.0043,-0.0027,-0.0033,-0.0101,-0.0106,-0.0111,-0.0071,-0.0146,-0.0147,-0.0148,-0.0113,-0.0111,-0.0109,0,0,0,0,0,0,0.02,0.0192,0.0115,0.014,0.0128,0.0054,0.0045,0.0031,0.0011,-0.0046,-0.0058,-0.0035,-0.0103,-0.0109,-0.0109,-0.0075,-0.0147,-0.0148,-0.0115,-0.0112,-0.011,0.0013,0,0,0,0,0,0,0.0203,0.0194,0.0197,0.0141,0.0127,0.0112,0.0046,0.0031,0.0005,-0.0004,-0.0056,-0.0066,-0.0105,-0.0107,-0.011,-0.0077,-0.0149,-0.0117,-0.0114,-0.0111,0.0007,0.002,0.003,0,0,0,0,0,0.0207,0.0215,0.0198,0.0189,0.0132,0.0113,0.0105,0.0045,0.0008,0.0016,-0.0023,-0.0065,-0.0092,-0.0106,-0.011,-0.0077,-0.0118,-0.0115,-0.0111,0.0002,0.0017,0.003,0,0,0,0,0,0,0.0247,0.0204,0.0184,0.0175,0.0153,0.0096,0.0091,0.0056,0.0032,0.0017,-0.0038,-0.0049,-0.0038,-0.007,-0.0085,-0.0059,-0.0114,-0.0111,-0.0026,-0.0012,-0.0001,0.0019,-0.015,0,0,0,0,0,0.0264,0.0262,0.022,0.0214,0.0207,0.0156,0.014,0.0103,0.0069,0.0054,0.002,-0.0012,-0.0021,-0.0029,-0.0045,-0.0021,-0.0053,-0.0005,0.0006,0.0016,0.0029,0.0019,0.0031,-0.0098,-0.0098,-0.0098,0,0,0.0272,0.0252,0.0246,0.0225,0.0199,0.0204,0.0141,0.0123,0.0129,0.0054,0.0058,0.003,-0.0006,0.0013,0.0015,-0.0012,0.0036,0.0021,0.003,0.0037,0.0024,0.0036,0.0047,-0.0095,-0.0096,-0.0096,0,0,0.0294,0.028,0.0287,0.0283,0.0257,0.0237,0.0238,0.0196,0.0181,0.0189,0.0135,0.0133,0.0113,0.0099,0.0089,0.0158,0.0098,0.0147,0.0224,0.0214,0.0225,0.0234,0.0212,0.0218,0.0153,0.0153,0.0154,0,0.0303,0.0309,0.0289,0.0301,0.0301,0.026,0.0275,0.0268,0.0232,0.0242,0.0203,0.0192,0.0158,0.0189,0.0207,0.0186,0.0162,0.0176,0.023,0.0238,0.0245,0.022,0.0225,0.016,0.0159,0.0158,0.0158,0,0.0333,0.0342,0.035,0.0358,0.0367,0.0372,0.0364,0.0377,0.0357,0.0347,0.037,0.0331,0.032,0.0316,0.0282,0.0323,0.0284,0.0247,0.0198,0.0266,0.0235,0.0238,0.0169,0.0167,0.0165,0.0163,0,0,0.0332,0.0362,0.0363,0.0383,0.0396,0.0403,0.0446,0.0471,0.0497,0.0485,0.0519,0.0512,0.0483,0.0469,0.0429,0.0428,0.0453,0.0366,0.0362,0.035,0.0424,0.0367,0.0363,0.0423,0.0425,0.0426,0.0384,0,0.0355,0.0391,0.0407,0.0454,0.0474,0.0485,0.053,0.0556,0.0569,0.0598,0.0585,0.0586,0.0544,0.0527,0.0533,0.0469,0.0466,0.0467,0.0355,0.0352,0.0297,0.0367,0.0329,0.0286,0.0386,0.0386,0.0387,0,0.0376,0.0401,0.0443,0.0506,0.0517,0.0541,0.061,0.064,0.069,0.0697,0.0718,0.0696,0.0704,0.0639,0.06,0.0601,0.0529,0.0479,0.0475,0.0381,0.0301,0.0233,0.0287,0.039,0.039,0.039,0.039,0,0.0381,0.0431,0.0468,0.0484,0.0545,0.0573,0.06,0.0661,0.0683,0.0737,0.0741,0.0777,0.074,0.0707,0.0618,0.0602,0.0561,0.0515,0.0402,0.0396,0.0321,0.0307,0.0485,0.0485,0.0485,0.0486,0.0486,0,0.0404,0.0435,0.0463,0.0483,0.0534,0.0571,0.0621,0.0665,0.0704,0.0741,0.0763,0.0785,0.0749,0.0724,0.0659,0.0551,0.0588,0.0434,0.0392,0.0362,0.0352,0.0404,0.0395,0.0484,0.0484,0.0485,0.0485,0,0.041,0.0429,0.047,0.052,0.0533,0.056,0.0595,0.0633,0.0662,0.0704,0.0709,0.0761,0.0744,0.0706,0.0641,0.056,0.0487,0.0429,0.0396,0.0352,0.0316,0.0314,0.0308,0.0305,0.0304,0.0302,0.0301,0,0.0426,0.0441,0.0476,0.0487,0.0501,0.053,0.0557,0.06,0.0636,0.0697,0.0722,0.0721,0.0761,0.0662,0.054,0.043,0.0443,0.0289,0.0252,0.0344,0.0303,0.0304,0.0304,0.02,0.0198,0.0196,0.0195,0,0.045,0.0445,0.046,0.0479,0.0494,0.0524,0.0557,0.0594,0.0659,0.0699,0.0785,0.082,0.0716,0.0616,0.0437,0.0356,0.0316,0.0248,0.0366,0.0249,0.0238,0.0199,0.0204,0.0181,0.0182,0.0183,0.0184,0.0185,0.0449,0.0448,0.0451,0.0473,0.049,0.0536,0.0577,0.0629,0.0704,0.0777,0.0821,0.083,0.0701,0.0457,0.0333,0.0174,0.0186,0.0114,0.0121,0.0129,0.0122,0.0109,0.0025,0.0026,0.0026,0.0027,0.0027,0,0.0469,0.0454,0.0455,0.0492,0.0526,0.0524,0.0596,0.0641,0.0756,0.078,0.0834,0.0694,0.0559,0.0419,0.0145,0.0005,0.0016,-0.0025,0.0016,0.0029,0.0041,0.0032,-0.009,-0.009,-0.0091,-0.0091,0,0,0.0471,0.0468,0.0461,0.0518,0.0545,0.0586,0.0632,0.0693,0.072,0.0767,0.0739,0.0709,0.0551,0.0337,0.0166,0.0028,0.0063,0.0005,0.0102,0.0179,0.0193,0.0112,0.0112,0,0,0,0,0]}],[{"header":{"parameterUnit":"m.s-1","parameterCategory":2,"la1":30.2991,"la2":30.254,"lo1":-89.0895,"lo2":-89.0444,"dy":0.0017,"dx":0.0017,"nx":28,"ny":28,"refTime":"2024-08-08T09:00:00:Z","depth":"4","parameterNumber":2,"parameterNumberName":"U-component_of_CURRENTS"},"data":[0,0,0,0,0,0,0,0,0,0,0,0,0,0,0,0,0,0,0,0,0,0,0,0,0,0,0,0,0,0,0,0,0,0,0,0,0,0,0,0,0,0,0,0,0,0,0,0,0,0,0,0,0,0,0,0,0,0,-0.0024,-0.0024,0,-0.0011,-0.0011,-0.001,0.0046,0.0047,0.0048,0.005,0.0164,0.0166,0.0168,0,0,0,0,0,0,0,0,0,0,0,0,0,-0.004,-0.004,-0.0024,-0.0024,-0.0024,-0.0011,-0.0011,-0.001,0.0045,0.0047,0.0049,0.005,0.0164,0.0166,0.0168,0,0,0,0,0,0,0,0,0,0,0,0,0,-0.0031,-0.0039,-0.0024,0.0007,0.001,-0.0011,-0.0011,-0.001,0.0045,0.0047,0.0049,0.0051,0.0163,0.0166,0.0168,0.0142,0,0,0.0176,0.0177,0,0,0,0,0,0,0,0,-0.0032,-0.0031,0.0002,0.0004,0.0008,0.0019,0.0026,0.0046,0.0045,0.003,0.005,0.0052,0.0124,0.013,0.0125,0.0147,0.0152,0.0176,0.0178,0.0179,0.018,0,0,0,0,0,0,0,-0.0032,-0.0031,-0.002,0.0002,0.0006,0.0007,0.0011,0.0029,0.0066,0.0032,0.0036,0.0039,0.0127,0.0122,0.0128,0.0154,0.0176,0.0178,0.018,0.0181,0.0311,0.0313,0,0,0,0,0,0,-0.0032,-0.0032,-0.0021,-0.002,-0.0006,0.0006,0.001,0.0012,0.0064,0.0073,0.0037,0.0041,0.0117,0.0125,0.0133,0.026,0.0179,0.0181,0.0183,0.0309,0.0311,0.0313,0,0,0,0,0,0,-0.0033,-0.0031,-0.0021,-0.0024,-0.0023,0.0004,0.0006,0.0011,0.0039,0.0067,0.0079,0.0063,0.0119,0.0129,0.0209,0.0259,0.0183,0.0185,0.0307,0.031,0.0312,0.0416,0,0,0,0,0,0,-0.0033,-0.0032,-0.0025,-0.0024,-0.0022,-0.0019,0.0004,0.001,0.0036,0.0043,0.0093,0.0104,0.0121,0.0206,0.0212,0.0262,0.0187,0.0304,0.0308,0.0311,0.041,0.0422,0.0432,0,0,0,0,0,-0.0034,-0.0038,-0.0025,-0.0023,-0.0016,-0.0019,-0.0018,0.0007,0.0036,0.0041,0.011,0.0104,0.0232,0.021,0.0217,0.0268,0.0303,0.0307,0.0311,0.0405,0.0419,0.0431,0,0,0,0,0,0,-0.0048,-0.0033,-0.0018,-0.0019,-0.0011,-0.0009,0.0001,0.0018,0.0069,0.0107,0.0132,0.0148,0.0234,0.0231,0.0205,0.0314,0.0263,0.0269,0.0332,0.0346,0.0356,0.0358,0.0189,0,0,0,0,0,-0.0048,-0.0038,-0.0031,-0.0028,-0.002,-0.0004,0.0002,0.003,0.0069,0.0094,0.0147,0.0202,0.0245,0.0283,0.0318,0.0376,0.0331,0.0411,0.0422,0.0431,0.0437,0.0402,0.041,0.0327,0.0327,0.0327,0,0,-0.005,-0.0042,-0.0035,-0.0029,-0.0016,0.0016,0.0006,0.0037,0.0095,0.01,0.0217,0.0244,0.0269,0.0349,0.0385,0.0363,0.0432,0.0437,0.0445,0.0445,0.0407,0.0415,0.0422,0.033,0.0329,0.0329,0,0,-0.0052,-0.0042,-0.0029,-0.0011,0.0021,0.0041,0.0057,0.01,0.015,0.0247,0.0271,0.033,0.0414,0.0437,0.0456,0.054,0.0487,0.0556,0.0623,0.059,0.0596,0.0601,0.0553,0.0552,0.0566,0.0566,0.0567,0,-0.0048,-0.0032,-0.0028,-0.0001,0.0033,0.0061,0.0105,0.015,0.023,0.0284,0.031,0.0431,0.0453,0.0521,0.0567,0.0565,0.0532,0.0574,0.0603,0.0607,0.061,0.0559,0.0557,0.0572,0.0571,0.0571,0.057,0,-0.0037,-0.0006,0.0005,0.0064,0.0097,0.0136,0.0205,0.0279,0.036,0.041,0.052,0.0553,0.0619,0.0634,0.064,0.068,0.0644,0.0616,0.0567,0.0624,0.0567,0.0564,0.058,0.0578,0.0576,0.0575,0,0,-0.006,0.0002,0.0013,0.0064,0.0145,0.0178,0.0293,0.0385,0.047,0.0564,0.0651,0.0735,0.0749,0.0768,0.0765,0.0749,0.0747,0.071,0.0706,0.0657,0.0667,0.0613,0.0602,0.0726,0.0726,0.0727,0.0618,0,-0.0042,0.0013,0.0054,0.0154,0.0197,0.0285,0.0384,0.0487,0.058,0.0676,0.0719,0.08,0.0799,0.0837,0.0826,0.0767,0.0743,0.0778,0.0623,0.0618,0.0559,0.0599,0.0727,0.0614,0.0613,0.0613,0.0612,0,-0.0035,0.0006,0.0091,0.0216,0.0248,0.0342,0.0509,0.0598,0.0726,0.0795,0.0873,0.0895,0.0924,0.0895,0.0831,0.0858,0.0781,0.0719,0.0712,0.0622,0.0557,0.0545,0.0604,0.0605,0.0605,0.0606,0.0606,0,-0.006,0.0043,0.0119,0.0162,0.0302,0.0408,0.0512,0.0659,0.0736,0.087,0.0911,0.096,0.0967,0.0909,0.0797,0.0829,0.0667,0.0684,0.0555,0.0548,0.0581,0.0577,0.0614,0.0614,0.0614,0.0614,0.0615,0,-0.0059,0.0,0.0136,0.018,0.0319,0.0434,0.0588,0.0698,0.0822,0.0861,0.0969,0.0933,0.0968,0.0879,0.0797,0.0648,0.0662,0.0569,0.0523,0.0627,0.063,0.0577,0.0574,0.061,0.0611,0.0612,0.0613,0,-0.0099,-0.0028,0.0067,0.0238,0.031,0.0426,0.0621,0.0698,0.0834,0.0876,0.0912,0.0926,0.0821,0.0792,0.0657,0.0625,0.0495,0.0418,0.0509,0.0467,0.041,0.0414,0.0336,0.0333,0.0331,0.0329,0.0327,0,-0.0116,-0.0074,0.0095,0.0166,0.0265,0.0437,0.0531,0.0702,0.0731,0.079,0.0747,0.0727,0.0705,0.0504,0.0456,0.0356,0.0326,0.0308,0.042,0.0422,0.0385,0.0393,0.0399,0.0324,0.0323,0.0323,0.0322,0,-0.0155,-0.0091,-0.0019,0.0117,0.0246,0.0342,0.0469,0.0485,0.0603,0.0712,0.0633,0.0618,0.0485,0.0418,0.0357,0.025,0.0378,0.0286,0.0293,0.0397,0.0407,0.0373,0.0383,0.0314,0.0315,0.0316,0.0316,0,-0.0189,-0.015,-0.0061,0.0075,0.0179,0.0215,0.0307,0.0348,0.0416,0.0515,0.042,0.0397,0.0418,0.0341,0.0212,0.0201,0.0231,0.0283,0.0291,0.0299,0.0339,0.0349,0.02,0,0,0,0,0,-0.021,-0.018,-0.0108,0.0004,0.0084,0.0159,0.0228,0.0292,0.0377,0.0336,0.0426,0.031,0.0265,0.0192,0.0172,0.0127,0.0178,0.0101,0.023,0.027,0.0279,0.033,0,0,0,0,0,0,-0.0226,-0.0182,-0.0147,-0.0097,-0.0029,0.0039,0.0085,0.0145,0.0128,0.0232,0.0182,0.032,0.0224,0.0285,0.0174,0.0166,0.025,0.0113,0.0113,0.0265,0.0273,0.0281,0.0336,0,0,0,0,0]},{"header":{"parameterUnit":"m.s-1","parameterCategory":2,"la1":30.2991,"la2":30.254,"lo1":-89.0895,"lo2":-89.0444,"dy":0.0017,"dx":0.0017,"nx":28,"ny":28,"refTime":"2024-08-08T09:00:00:Z","depth":"4","parameterNumber":3,"parameterNumberName":"V-component_of_CURRENTS"},"data":[0,0,0,0,0,0,0,0,0,0,0,0,0,0,0,0,0,0,0,0,0,0,0,0,0,0,0,0,0,0,0,0,0,0,0,0,0,0,0,0,0,0,0,0,0,0,0,0,0,0,0,0,0,0,0,0,0,0,0.0382,0.0383,0,0.0458,0.0459,0.046,0.0521,0.0521,0.0522,0.0522,0.0517,0.0517,0.0516,0,0,0,0,0,0,0,0,0,0,0,0,0,0.0343,0.0343,0.0382,0.0383,0.0384,0.0458,0.0459,0.046,0.0521,0.0521,0.0522,0.0522,0.0518,0.0517,0.0516,0,0,0,0,0,0,0,0,0,0,0,0,0,0.0385,0.0343,0.0382,0.0421,0.0425,0.0458,0.0459,0.0461,0.0521,0.0521,0.0522,0.0523,0.0518,0.0517,0.0516,0.0498,0,0,0.0514,0.0514,0,0,0,0,0,0,0,0,0.0383,0.0387,0.0415,0.0419,0.0423,0.0479,0.0444,0.0468,0.0521,0.0487,0.0522,0.0523,0.0495,0.0496,0.0513,0.0498,0.0498,0.0514,0.0513,0.0513,0.0513,0,0,0,0,0,0,0,0.038,0.0384,0.0414,0.0415,0.0421,0.0453,0.046,0.0449,0.0486,0.049,0.0494,0.0499,0.0497,0.0514,0.0513,0.0498,0.0514,0.0513,0.0513,0.0512,0.0376,0.0373,0,0,0,0,0,0,0.0363,0.0381,0.0412,0.0416,0.0402,0.0453,0.0461,0.0462,0.0488,0.0493,0.0498,0.0501,0.0515,0.0514,0.0513,0.045,0.0513,0.0512,0.0512,0.0379,0.0376,0.0372,0,0,0,0,0,0,0.0362,0.0365,0.0409,0.0399,0.0407,0.0453,0.0454,0.0463,0.0498,0.0495,0.0499,0.0525,0.0515,0.0514,0.051,0.0452,0.0512,0.0511,0.0383,0.0378,0.0374,0.0351,0,0,0,0,0,0,0.036,0.0364,0.0375,0.0398,0.0407,0.0433,0.0454,0.0464,0.0498,0.0503,0.0519,0.0519,0.0516,0.0511,0.0509,0.0452,0.0511,0.0387,0.0381,0.0375,0.0355,0.0346,0.0337,0,0,0,0,0,0.0358,0.0371,0.0375,0.038,0.0415,0.0433,0.0441,0.0477,0.0498,0.0512,0.0519,0.0519,0.047,0.051,0.0508,0.0449,0.039,0.0383,0.0376,0.0359,0.0348,0.0338,0,0,0,0,0,0,0.0368,0.0379,0.0384,0.0401,0.0415,0.0443,0.0472,0.0485,0.0506,0.0521,0.0515,0.0514,0.0473,0.0465,0.0509,0.0383,0.0414,0.0407,0.0402,0.0391,0.0382,0.0393,0.051,0,0,0,0,0,0.0369,0.0382,0.039,0.0408,0.0419,0.0446,0.0465,0.0484,0.0499,0.0513,0.0507,0.0484,0.0437,0.0426,0.0395,0.0357,0.0352,0.0301,0.0292,0.0285,0.0286,0.0225,0.0212,0.0349,0.0349,0.0349,0,0,0.038,0.0387,0.0397,0.0411,0.0435,0.0445,0.0461,0.0496,0.0488,0.0504,0.0498,0.0466,0.042,0.0364,0.034,0.0358,0.0243,0.0276,0.0271,0.0275,0.0216,0.0203,0.0192,0.0344,0.0345,0.0346,0,0,0.0402,0.0413,0.0431,0.044,0.0466,0.047,0.0478,0.0498,0.0494,0.0477,0.046,0.0408,0.0363,0.0308,0.0274,0.0196,0.0199,0.0163,0.0133,0.0073,0.0063,0.0053,0.0048,0.0038,0.0158,0.0158,0.0158,0,0.0419,0.043,0.044,0.0455,0.0461,0.0477,0.0487,0.0481,0.0488,0.046,0.0468,0.0353,0.0325,0.0226,0.0188,0.0177,0.0167,0.0188,0.0066,0.0056,0.0047,0.0044,0.0033,0.0156,0.0156,0.0156,0.0157,0,0.0435,0.0458,0.0473,0.0483,0.0486,0.0505,0.0485,0.0476,0.046,0.0431,0.0341,0.0293,0.0224,0.0173,0.0162,0.0054,0.0078,0.0068,0.0108,0.0033,0.0033,0.0023,0.0153,0.0154,0.0155,0.0155,0,0,0.0443,0.0477,0.0486,0.0495,0.0502,0.0505,0.0476,0.0436,0.0413,0.0358,0.0296,0.018,0.0157,0.0113,0.007,0.0004,-0.0068,0.0009,0.0007,0.0031,-0.0161,-0.0102,-0.0107,-0.0094,-0.0097,-0.0099,-0.0126,0,0.0457,0.0484,0.0488,0.0507,0.0518,0.0505,0.0475,0.0436,0.0387,0.033,0.0229,0.0172,0.013,0.0106,0.002,-0.0051,-0.01,-0.0057,-0.0115,-0.0116,-0.0034,-0.012,-0.0107,-0.0133,-0.0135,-0.0137,-0.0138,0,0.0466,0.0482,0.0508,0.0512,0.0516,0.0529,0.0479,0.0454,0.0366,0.0328,0.0237,0.0178,0.0061,0.0052,-0.0106,-0.0074,-0.0116,-0.0166,-0.0168,-0.0112,-0.0078,-0.0053,-0.0157,-0.0155,-0.0154,-0.0153,-0.0152,0,0.0457,0.049,0.0509,0.0515,0.0524,0.0528,0.0525,0.0462,0.0443,0.0351,0.0328,0.0173,0.0123,0.0006,-0.0099,-0.0102,-0.0249,-0.0261,-0.0243,-0.0236,-0.0263,-0.0252,-0.0355,-0.0355,-0.0355,-0.0355,-0.0355,0,0.0448,0.047,0.0525,0.0541,0.0565,0.0557,0.0568,0.0532,0.0492,0.0446,0.0354,0.0262,0.0107,0.0,-0.0099,-0.0198,-0.0243,-0.0257,-0.0257,-0.0271,-0.0262,-0.0268,-0.0257,-0.0356,-0.0355,-0.0355,-0.0355,0,0.0438,0.0468,0.0513,0.0555,0.0579,0.0601,0.0649,0.0641,0.0608,0.0548,0.0531,0.0347,0.0191,0.0075,-0.0111,-0.0166,-0.0277,-0.0284,-0.0253,-0.0248,-0.022,-0.0211,-0.0287,-0.0285,-0.0284,-0.0283,-0.0282,0,0.0428,0.0461,0.0554,0.0594,0.0634,0.0684,0.0717,0.0711,0.0674,0.0558,0.0493,0.0369,0.0238,0.0029,-0.011,-0.0231,-0.0245,-0.0259,-0.029,-0.023,-0.0222,-0.0214,-0.0207,-0.028,-0.028,-0.028,-0.0279,0,0.0417,0.0479,0.051,0.063,0.0696,0.0742,0.0762,0.0722,0.066,0.0674,0.0467,0.0348,0.0186,-0.0006,-0.0043,-0.0163,-0.0246,-0.0247,-0.0251,-0.0281,-0.0223,-0.0214,-0.0209,-0.0275,-0.0276,-0.0276,-0.0276,0,0.0418,0.0442,0.0531,0.0613,0.0727,0.0735,0.0736,0.0675,0.065,0.0508,0.0418,0.0258,0.0165,0.0028,-0.007,-0.0111,-0.0143,-0.0159,-0.0168,-0.0174,-0.0133,-0.0042,-0.0053,0,0,0,0,0,0.0394,0.0409,0.0501,0.0555,0.069,0.0747,0.0738,0.0705,0.0623,0.0506,0.0473,0.0319,0.0163,0.0031,-0.0001,-0.0063,-0.0154,-0.0103,-0.0177,-0.0252,-0.0256,-0.0223,0,0,0,0,0,0,0.0356,0.043,0.0467,0.0543,0.0581,0.0676,0.0666,0.0594,0.0493,0.0421,0.0317,0.034,0.0164,0.0206,0.0007,-0.0013,-0.0061,-0.0158,-0.0158,-0.0249,-0.0253,-0.0257,-0.0225,0,0,0,0,0]}]]